Regional Weather Roundup
Issued by NWS Upton, NY

Current Version | Previous Version | Graphics & Text | Print | Product List | Glossary Off
Versions: 1 2 3 4 5 6 7 8 9 10 11 12 13 14 15 16 17 18 19 20 21 22 23 24 25 26 27 28 29 30 31 32 33 34 35 36 37 38 39 40 41 42 43 44 45 46 47 48 49 50

000
ASUS41 KOKX 250205
RWROKX

Regional Weather Roundup
National Weather Service New York NY
900 PM EST SAT FEB 24 2018

Note: "FAIR" indicates few or no clouds below 12,000 feet with no
significant weather and/or obstructions to visibility.

NYZ071-072-176-178-NJZ106-104-250300-
New York City Metro Area

CITY           SKY/WX    TMP DP  RH WIND       PRES   REMARKS
Central Park   CLOUDY    47  44  90 NE6       30.23R FOG
Bronx Bot Gard   N/A     45  43  93 CALM      30.24R
Bronx Lehman C   N/A     45  43  93 N7          N/A
LaGuardia Arpt LGT RAIN  45  42  89 NE8       30.21R FOG
Queens College   N/A     46  45  93 NE8         N/A
Kennedy Intl   LGT RAIN  47  46  97 N9        30.21R
Breezy Point     N/A     45 N/A N/A NE3         N/A
Brooklyn Coll    N/A     48  45  87 N5          N/A
Staten Island    N/A     45  43  93 NE3         N/A
Newark/Liberty CLOUDY    47  43  86 N9        30.20R
Teterboro      DRIZZLE   47  44  90 N7        30.21R FOG
$$

NYZ177-179-078>081-250300-
Long Island New York

CITY           SKY/WX    TMP DP  RH WIND       PRES   REMARKS
Jones Beach      N/A     45 N/A N/A N12         N/A
Wantagh          N/A     46  45  93 N7          N/A
Hempstead        N/A     46  45  93 N3        30.25R
Matinecock Pt    N/A     41 N/A N/A E10         N/A
Farmingdale    CLOUDY    45  43  93 NE10      30.21R
MacArthur/ISP  DRIZZLE   45  44  97 N8        30.21R
Stony Brook U    N/A     43  41  93 N3          N/A
Shirley        CLOUDY    45  45 100 N8        30.22R
Mt Sinai Harb    N/A     41 N/A N/A N1          N/A
Westhampton    CLOUDY    45  44  97 N8        30.22R
East Hampton   CLOUDY    42  40  93 N6        30.21R
Southold         N/A     43  41  93 N6          N/A
Montauk          N/A     43  40  89 N6        30.22R
$$

NYZ052-065-067-250300-
Hudson Valley

CITY           SKY/WX    TMP DP  RH WIND       PRES   REMARKS
White Plains   LGT RAIN  43  40  89 NE10      30.21R
Larchmont Harb   N/A     43 N/A N/A N8          N/A
Croton On Huds   N/A     43 N/A N/A NE1         N/A
Somers           N/A     39  37  93 N2          N/A
Brewster         N/A     39  37  93 N3          N/A
Newburgh       NOT AVBL
Montgomery     LGT RAIN  40  38  93 CALM      30.22S
Otisville        N/A     37  37 100 NE1         N/A
Warwick          N/A     41  41 100 E5          N/A
Suffern          N/A     43  41  93 NE3         N/A
Poughkeepsie   CLOUDY    40  39  97 CALM      30.23S FOG
Albany         MOCLDY    35  29  78 CALM      30.25R
$$

NJZ001-105-106-008-010-013-015-019>022-104-250300-
New Jersey

CITY           SKY/WX    TMP DP  RH WIND       PRES   REMARKS
Newark/Liberty CLOUDY    47  43  86 N9        30.20R
Teterboro      DRIZZLE   47  44  90 N7        30.21R FOG
Caldwell       CLOUDY    43  43 100 NE6       30.23R FOG
Somerville     CLOUDY    44  43  96 N6        30.18S
Linden         CLOUDY    46  41  84 CALM      30.19F
Perth Amboy      N/A     45 N/A N/A NE7         N/A
Sussex         CLOUDY    42  41  96 E3        30.21F
Andover          N/A     42  40  92 NE5       30.21S
Trenton        CLOUDY    46  44  93 E3        30.18S
Millville      CLOUDY    49  45  86 E6        30.17R
Atlantic City  CLOUDY    49  44  83 E9        30.16
Wrightstown    CLOUDY    46  43  88 NE5       30.15F
Toms River     CLOUDY    46  44  93 NE3       30.19F
Belmar         CLOUDY    46  43  89 E3        30.19F
$$

PAZ047>061-062-071-250300-
Eastern Pennsylvania

CITY           SKY/WX    TMP DP  RH WIND       PRES   REMARKS
Philadelphia   CLOUDY    48  44  86 NE9       30.18S
Allentown      CLOUDY    45  42  89 NE7       30.19R
Scranton       CLOUDY    41  39  93 NE6       30.18F
$$

CTZ002-004>006-009-010-012-RIZ004-006-007-MAZ004-011-015-250300-
Southern New England

 In CT

CITY           SKY/WX    TMP DP  RH WIND       PRES   REMARKS
Bradley Intl   MOCLDY    41  36  82 CALM      30.23R
Hartford       CLOUDY    41  40  96 CALM      30.23R
Danbury        LGT RAIN  41  39  93 CALM      30.24R
Wtrbury/Oxford CLOUDY    39  38  96 N6        30.23R WCI  35
Norwalk Harbor   N/A     41 N/A N/A N10         N/A
Bridgeport     RAIN      44  41  89 N7        30.24R FOG
Meriden        CLOUDY    42  38  85 NW5       30.24R
New Haven      LGT RAIN  44  40  85 N6        30.23R
Chester        LGT RAIN  41  39  93 NW7       30.23R
Groton         LGT RAIN  44  40  85 N6        30.23R
Willimantic    CLOUDY    42  40  92 CALM      30.23R

 In RI

CITY           SKY/WX    TMP DP  RH WIND       PRES   REMARKS
Providence     CLOUDY    44  41  89 NW3       30.23R
Block Island   LGT RAIN  42  41  96 N5        30.23R
Westerly       LGT RAIN  44  43  96 NW5       30.23R

In MA

CITY           SKY/WX    TMP DP  RH WIND       PRES   REMARKS
Boston         MOCLDY    44  32  62 N8        30.25R
Worcester      FAIR      40  30  67 N9        30.21R WCI  34
Westfield      FAIR      39  34  82 CALM      30.23R
Provincetown   CLOUDY    42  37  82 N5        30.25R
Nantucket      LGT RAIN  42  42 100 N6        30.21R FOG
$$

ANZ330-335-338-340-345-350-353-355-250300-
Coastal Marine Observations


STATION/POSITION TIME  SKY/WX   TEMP    WIND        PRES    VSBY  WAVE
                                AIR SEA DIR/SP/G                  HT/PER
                 (UTC)          (F)     (DEG/KT/KT) (MB)    (MI)  (FT/S)
NY Harb Entrance 0150            41 39  140/  4/  6 1022.4          2/ 9
20 S Fire Island 0150            45 43  100/  4/  6 1022.4          2/ 9
23 SSW Montauk P 0150            43 43   10/  4/  6 1022.9          2/ 9
15 E Barnegat Li 0130               42                N/A           2/10
Hudson Canyon    0150            46 46  100/  6/  6 1022.2          2/10
Kings Point      0124            43 38   50/  3/  4 1024.0
Execution Rocks  NOT AVBL
Western LI Sound NOT AVBL
Central LI Sound 0115            41     350/  6/  6   N/A           0
Robbins Reef     0142            46     350/  7/  7 1023.0
$$


>>>>>>>>>>>>>>>>>>>>>>>>>>>> KEY <<<<<<<<<<<<<<<<<<<<<<<<<<<
>                                                          <
>     SKY/WX - Sky Condition/Present Weather               <
>     TMP    - Temperature in Fahrenheit                   <
>     DP     - Dew Point in Fahrenheit                     <
>     RH     - Relative Humidity in Percent                <
>     WIND   - Direction (from) and Speed in MPH           <
>     PRES   - Mean Sea Level Pressure (inches of Hg)      <
>     WCI    - Wind Chill Index                            <
>     VSB    - Visibility in Miles                         <
>     HX     - Heat Index                                  <
>     TC     - Temperature in Celsius                      <
>     VRB    - Varibale Wind Direction                     <
>                                                          <
>>>>>>>>>>>>>>>>>>>>>>>>>>>> KEY <<<<<<<<<<<<<<<<<<<<<<<<<<<



USA.gov is the U.S. government's official web portal to all federal, state and local government web resources and services.